Volver al catálogo

QPS-SAR-7 TSUKUYOMI-II

ActivoCienciaVLEO
NORAD 59447·PAYLOAD·🇯🇵 Japan

Lanzado Apr 7, 2024 desde Cape Canaveral Space Force Station

Loading…

Próximos Pases (próximas 24 horas)

TLE

ActualizadoSource: Space-Track

Época: Sep 14, 2026, 15:35 UTC

1 59447U 24066F   26257.64942140  .00005437  00000-0  34557-3 0  9995
2 59447  45.6026 135.4605 0001045 147.8405 212.2544 15.09895597133743

Sigue QPS-SAR-7 TSUKUYOMI-II en tiempo real con AllMySat

Download on the App Store